Regional Weather Roundup
Issued by NWS Charleston, SC

Home | Current Version | Previous Version | Text Only | Print | Product List | Glossary On
Versions: 1 2 3 4 5 6 7 8 9 10 11 12 13 14 15 16 17 18 19 20 21 22 23 24 25 26 27 28 29 30 31 32 33 34 35 36 37 38 39 40 41 42 43 44 45 46 47 48 49 50
000
ASUS42 KCHS 230912
RWRCHS

REGIONAL WEATHER ROUNDUP
NATIONAL WEATHER SERVICE CHARLESTON SC
500 AM EDT SUN APR 23 2017

NOTE: "FAIR" INDICATES FEW OR NO CLOUDS BELOW 12,000 FEET WITH NO
SIGNIFICANT WEATHER AND/OR OBSTRUCTIONS TO VISIBILITY.

NOT ALL STATIONS ARE QUALITY CONTROLLED. USE DATA WITH CAUTION...
ESPECIALLY DEWPOINT OBSERVATIONS.

SCZ027-030-031-034>040-042>050-231000-
...SOUTHEAST SOUTH CAROLINA...

CITY           SKY/WX    TMP DP  RH WIND       PRES   REMARKS
N CHARLESTON   PTCLDY    71  67  87 S12       29.86S
WATERFRONT PRK   N/A     73  71  93 SW8       29.85S
JOHNS ISLAND   FAIR      73  70  88 S9        29.87S
PINOPOLIS        N/A     72  70  94 SW7       29.77S
MONCKS CORNER  FAIR      68  66  94 S6        29.86R
SUMMERVILLE    FAIR      68  66  94 SW3       29.87R
BEAUFORT MCAS  CLEAR     72  70  93 S5        29.85S
BEAUFORT ARPT  FAIR      72  68  88 S12G17    29.85S
HILTON HEAD IS PTCLDY    73  70  88 S10G16    29.86F
WALTERBORO     SUNNY     66  64  94 S3        29.86F
ALLENDALE      FAIR      68  64  88 CALM      29.84S FOG

...SOUTHERN MIDLANDS AND PEE DEE...

CITY           SKY/WX    TMP DP  RH WIND       PRES   REMARKS
GEORGETOWN     PTSUNNY   70  70 100 SW5       29.87S
KINGSTREE      CLOUDY    70  64  83 SW3       29.86R
ORANGEBURG     CLEAR     65  63  93 CALM      29.84F
BARNWELL       FAIR      70  64  83 S5        29.84F
AIKEN          FAIR      61  59  94 N3        29.89R
MANNING        FAIR      70  64  83 SW22G29   29.86R
COLUMBIA       MOCLDY    70  59  68 CALM      29.84S
SUMTER         PTCLDY    66  62  85 E3        29.85R
FLORENCE       CLOUDY    66  61  84 NE18      29.89R
MYRTLE BEACH   PTCLDY    71  68  90 SW7       29.87S
N MYRTLE BEACH CLOUDY    71  69  93 CALM      29.87R

$$

GAZ063-065-086>088-099>101-113>116-118-119-134>141-150-231000-
...SOUTHEAST GEORGIA...

CITY           SKY/WX    TMP DP  RH WIND       PRES   REMARKS
SAVANNAH ARPT  CLEAR     70  67  90 S8        29.86S
HUNTER AAF     CLEAR     71  71 100 S7        29.83F
FORT STEWART   CLEAR     66  64  94 CALM      29.84S
STATESBORO     CLEAR     69  65  86 CALM      29.85S
SYLVANIA       SUNNY     70  64  83 CALM      29.86S
CLAXTON        FAIR      67  67 100 CALM      29.85F

...CSRA...CENTRAL AND FAR SOUTHEAST GEORGIA...

CITY           SKY/WX    TMP DP  RH WIND       PRES   REMARKS
THOMSON        CLOUDY    67  55  66 E7        29.90F
AUGUSTA-BUSH   MOCLDY    65  62  90 CALM      29.83S
AUGUSTA-DANIEL MOCLDY    67  55  65 N10       29.85S
SWAINSBORO     FAIR      64  64 100 CALM      29.85F
VIDALIA        CLEAR     64  63  94 CALM      29.85F
EASTMAN        FAIR      65  53  65 SE3       29.86S
HAZLEHURST     FAIR      67  64  90 SW3       29.84F
ALMA           PTCLDY    64  62  93 S3        29.85F
WAYCROSS       MOCLDY    67  67  99 SW5       29.85F
JESUP          FAIR      64  61  88 CALM      29.86F
BAXLEY         FAIR      64  64 100 CALM      29.85F
BRUNSWICK      CLEAR     70  68  94 CALM      29.87F
SAINT SIMONS   PTCLDY    72  67  84 S5        29.86F

$$

SCZ027-028-034-036>038-045-046-048>050-GAZ119-141-231000-
...LAKE AND SUPPLEMENTAL COASTAL OBSERVATIONS...

STATION/POSITION TIME  TEMP    WIND        PRES    WAVE   SWELL
                       AIR SEA DIR/SP/G            HT/PER HT/PER/DIR
                 (UTC) (F)     (DEG/KT/KT) (MB)    (FT/S) (FT/S/D)
WINYAH BAY       NOT AVBL
LAKE MURRAY      0820   67      20/  3/  7 1010.5
ACE BASIN NERRS  NOT AVBL
FORT PULASKI     0842   73 74  210/ 11/ 17 1011.1F
SAPELO ISLAND    0800   72     180/  6     1011.0

$$

ANZ835-935-AMZ111-154-330-350-352-354-370-450-454-472-231000-
...C-MAN AND BUOY OBSERVATIONS...

STATION/POSITION TIME  TEMP    WIND        PRES    WAVE   SWELL
                       AIR SEA DIR/SP/G            HT/PER HT/PER/DIR
                 (UTC) (F)     (DEG/KT/KT) (MB)    (FT/S) (FT/S/D)
BUOY 41004       0850   75 74  210/ 16/ 19 1011.3F   4/ 5   2/110/12
BUOY 41008       0850   72 72  190/ 12/ 14 1010.9F   3/ 5   2/100/12
FOLLY BEACH CMAN 0800   73     210/ 13/ 15 1012.1F
CAPERS NEARSHORE 0808   72 72  220/ 10/ 14 1011.2F
FRIPP NEARSHORE  0808   72 72  210/ 12/ 16 1010.9F


STATION/POSITION TIME  TEMP    WIND        PRES    WAVE   SWELL
                       AIR SEA DIR/SP/G            HT/PER HT/PER/DIR
                 (UTC) (F)     (DEG/KT/KT) (MB)    (FT/S) (FT/S/D)
5E ST. MARYS GA  0830      72                N/A     3/ 5   2/100/11
FRYING PAN BUOY  0850   74 73  210/ 12/ 16 1011.5S   4/ 6   2/130/13
BUOY 41025       0850   63 75  360/ 17/ 21 1012.5R   4/ 6   2/180/ 7
CAPE LOOKOUT NC  0800   64     350/ 11/ 13 1012.1F
BUOY 41002       0850   72 75  210/ 14/ 17 1014.2F   5/12   3/ 30/12
BUOY 41010       0850   75 77  170/ 12/ 16 1012.4F   5/12   3/ 70/12
ST AUGUSTINE FL  0900   71 75  220/  7/  9 1012.6F


$$



USA.gov is the U.S. government's official web portal to all federal, state and local government web resources and services.